Home   Weather   Aberdeen   Past weeks
Flag for USA

Past Weather in Aberdeen, South Dakota, USA — Yesterday and Last 2 Weeks

Now
70 °F

Thunderstorms. Partly sunny.


Feels Like: 76 °F
Forecast: 79 / 54 °F
Wind: 7 mph from Northeast

Location: Aberdeen Regional Airport

Current Time: Jun 24, 2019 at 6:47:15 pm

Latest Report: Jun 24, 2019 at 6:06 pm


Visibility: 10 mi

Pressure: 29.65 "Hg

Humidity: 61%

Dew Point: 56 °F

Location of AberdeenLocation

Past Weather in Aberdeen — Graph

°F

Aberdeen Temperature Yesterday

Maximum temperature yesterday: 76 °F (at 1:53 pm)
Minimum temperature yesterday: 47 °F (at 4:53 am)
Average temperature yesterday: 63 °F

High & Low Weather Summary for the Past Weeks

 TemperatureHumidityPressure
High90 °F (Jun 14, 4:53 pm)97% (Jun 16, 7:02 am)30.26 "Hg (Jun 16, 7:02 am)
Low44 °F (Jun 10, 4:53 am)25% (Jun 10, 4:53 pm)29.55 "Hg (Jun 14, 7:53 pm)
Average65 °F68%29.87 "Hg
* Reported Jun 9 5:53 pm — Jun 24 5:41 pm, Aberdeen. Weather by CustomWeather, © 2019

Note: Actual official high and low records may vary slightly from our data, if they occured in-between our weather recording intervals... More about our weather records

Advertising

Aberdeen Weather History for the Previous 24 Hours

Scroll right to see more
 ConditionsComfort  
Time TempWeatherWind HumidityBarometerVisibility
5:41 pm
Mon, Jun 24
76 °FThundershowers. Broken clouds.7 mph48%29.63 "Hg10 mi
4:53 pm81 °FSunny.7 mph37%29.61 "Hg8 mi
3:53 pm78 °FLight rain. Broken clouds.8 mph42%29.62 "Hg10 mi
2:53 pm82 °FSunny.8 mph40%29.62 "Hg10 mi
1:53 pm78 °FPassing clouds.3 mph39%29.64 "Hg10 mi
12:53 pm78 °FSunny.6 mph37%29.65 "Hg10 mi
11:53 am76 °FSunny.6 mph43%29.65 "Hg10 mi
10:53 am74 °FSunny.No wind48%29.66 "Hg10 mi
9:53 am70 °FSunny.5 mph59%29.66 "Hg10 mi
8:53 am64 °FSunny.3 mph75%29.66 "Hg10 mi
7:53 am61 °FSunny.3 mph83%29.67 "Hg10 mi
6:53 am58 °FPassing clouds.5 mph90%29.67 "Hg10 mi
5:53 am58 °FSunny.5 mph87%29.67 "Hg10 mi
4:53 am58 °FPassing clouds.6 mph87%29.67 "Hg10 mi
3:53 am61 °FPassing clouds.3 mph81%29.67 "Hg10 mi
2:53 am64 °FPassing clouds.5 mph70%29.67 "Hg10 mi
1:53 am60 °FPartly cloudy.6 mph86%29.68 "Hg10 mi
12:53 am60 °FPassing clouds.5 mph90%29.70 "Hg10 mi
11:53 pm
Sun, Jun 23
61 °FClear.7 mph87%29.72 "Hg10 mi
10:53 pm61 °FClear.No wind90%29.73 "Hg10 mi
9:53 pm64 °FPassing clouds.7 mph84%29.74 "Hg10 mi
8:53 pm66 °FSunny.3 mph75%29.72 "Hg10 mi
7:53 pm68 °FOvercast.3 mph70%29.74 "Hg10 mi
6:53 pm70 °FPartly sunny.5 mph66%29.75 "Hg10 mi
Weather by CustomWeather, © 2019

See weather overview